THOR ABLESTAR DEB, 480

Orbit data source: Space-Track

THOR ABLESTAR DEB, 480 is space debris in LEO originally from a launch on Thu, 29 Jun 1961 UTC launched from the Air Force Eastern Test Range (AFETR). Debris objects in space refer to the collection of defunct objects orbiting the Earth. Examples of debris include non-operational satellites, rocket bodies, and fragments generated from explosions, collisions, or faulty payload assembly.

Loading next visibility...
Identifier
480, 1961-015FS
Orbit
LEO
Country
Flag of USUS
Related business
Manufacturer
Unknown
Mission
Spacecraft
Bus & Motor
Unknown
Mass
Unknown
Launch date (UTC)
1961-06-29 (65 years ago)
Launch vehicle
Unknown
Launch site
Air Force Eastern Test Range (AFETR)
Object type
Payload
Rocket body
Debris
Shape & HBR
Unknown shape, 0.2 m
Radar Cross Section
Small (<0.1 m²)

Expand to show TLE details & history
Last TLE update: 17 hours ago

TLE from 17 hours ago
0 THOR ABLESTAR DEB
1 00480U 61015FS  26034.46127024  .00002217  00000-0  67708-3 0  9999
2 00480  66.2368  64.7021 0083791 230.5777 128.7886 14.41848995335536
Epoch: 2026-02-03T11:04Z
TLE epoch observation values (Epoch: 2026-02-03T11:04:13.748Z)
Latitude
-0.00004°
Longitude
125.00293°
Altitude
792.212 km
Speed
7.438 km/s
True Right ascension
04h 18m 48s
True Declination
0° 00' 00"
Sunlit
Object was in daylight at epoch
Visualization orbit readout
Latitude
Unknown
Longitude
Unknown
Altitude
Unknown
Speed
Unknown
Apparent Right ascension
Unknown
Apparent Declination
Unknown
Sunlit
N/A
Visualization observer readout
Local Sidereal Time
05:57:13
Azimuth
Unknown
Elevation
Unknown
Doppler factor
Unknown
Orbital elements
Apogee altitude
810.551 km
Perigee altitude
691.082 km
Semi-major axis
7,128.953 km
Eccentricity
0.00838
Inclination
66.2368°
RAAN
64.7021°
Arg. of periapsis
230.5777°
True anomaly
129.53212°
Mean anomaly
128.7886°
Eccentric anomaly
129.16085°
Mean motion
3.60582 °/min
Orbital period
99.84 mins
BSTAR
0.00067708
Loading maneuver chart data...
Computing Atmospheric mass density...

Documentation

Showing up to 5 results
|